Satellite-Ground Cal/Val Region Overpasses Predictions

Prediction of Satellite NPP Overpassing Cal/Val Region: PacNW

Region Location: (Latitude: 10.00, Longitude: 139.50) to (Latitude: 22.70, Longitude: 165.60).

Table of predicted overpasses for the next 14.0 days since TLE Epoch: 4/5/2014
Interval Starting Time Starting Location Ending Time Ending Location
1 04/05/2014 14:44:11 ( 22.68, 164.98) 04/05/2014 14:47:47 ( 10.01, 161.95)
2 04/05/2014 16:25:41 ( 22.69, 139.60) 04/05/2014 16:25:48 ( 22.28, 139.50)
3 04/06/2014 03:34:48 ( 10.06, 147.08) 04/06/2014 03:38:23 ( 22.67, 144.07)
4 04/06/2014 16:06:42 ( 22.68, 144.36) 04/06/2014 16:10:18 ( 10.00, 141.33)
5 04/07/2014 03:15:48 ( 10.01, 151.85) 04/07/2014 03:19:24 ( 22.68, 148.82)
6 04/07/2014 15:47:43 ( 22.67, 149.11) 04/07/2014 15:51:18 ( 10.05, 146.09)
7 04/08/2014 02:56:48 ( 10.01, 156.60) 04/08/2014 03:00:24 ( 22.69, 153.57)
8 04/08/2014 15:28:43 ( 22.66, 153.86) 04/08/2014 15:32:18 ( 10.04, 150.84)
9 04/09/2014 02:37:49 ( 10.03, 161.35) 04/09/2014 02:41:24 ( 22.64, 158.34)
10 04/09/2014 15:09:44 ( 22.65, 158.61) 04/09/2014 15:13:19 ( 10.03, 155.60)
11 04/10/2014 02:19:27 ( 12.27, 165.59) 04/10/2014 02:22:24 ( 22.66, 163.09)
12 04/10/2014 04:00:19 ( 10.03, 140.73) 04/10/2014 04:01:49 ( 15.32, 139.50)
13 04/10/2014 14:50:43 ( 22.70, 163.38) 04/10/2014 14:54:19 ( 10.02, 160.35)
14 04/11/2014 03:41:20 ( 10.05, 145.48) 04/11/2014 03:44:55 ( 22.67, 142.47)
15 04/11/2014 14:34:44 ( 12.12, 165.59) 04/11/2014 14:35:20 ( 10.00, 165.10)
16 04/11/2014 16:13:14 ( 22.68, 142.75) 04/11/2014 16:16:50 ( 10.01, 139.73)
17 04/12/2014 03:22:19 ( 10.00, 150.25) 04/12/2014 03:25:55 ( 22.68, 147.22)
18 04/12/2014 15:54:14 ( 22.67, 147.51) 04/12/2014 15:57:49 ( 10.05, 144.49)
19 04/13/2014 03:03:20 ( 10.02, 155.00) 04/13/2014 03:06:56 ( 22.70, 151.97)
20 04/13/2014 15:35:15 ( 22.65, 152.26) 04/13/2014 15:38:50 ( 10.03, 149.24)
21 04/14/2014 02:44:21 ( 10.04, 159.75) 04/14/2014 02:47:56 ( 22.66, 156.73)
22 04/14/2014 15:16:14 ( 22.69, 157.02) 04/14/2014 15:19:50 ( 10.01, 153.99)
23 04/15/2014 02:25:21 ( 10.06, 164.50) 04/15/2014 02:28:56 ( 22.67, 161.48)
24 04/15/2014 14:57:15 ( 22.67, 161.77) 04/15/2014 15:00:50 ( 10.05, 158.76)
25 04/16/2014 03:47:51 ( 10.01, 143.89) 04/16/2014 03:51:27 ( 22.69, 140.86)
26 04/16/2014 14:39:19 ( 18.90, 165.59) 04/16/2014 14:41:50 ( 10.03, 163.51)
27 04/16/2014 16:19:45 ( 22.65, 141.15) 04/16/2014 16:21:40 ( 15.91, 139.50)
28 04/17/2014 03:28:51 ( 10.04, 148.64) 04/17/2014 03:32:26 ( 22.66, 145.62)
29 04/17/2014 16:00:45 ( 22.69, 145.91) 04/17/2014 16:04:21 ( 10.01, 142.88)
30 04/18/2014 03:09:51 ( 10.00, 153.40) 04/18/2014 03:13:27 ( 22.68, 150.37)
31 04/18/2014 15:41:45 ( 22.67, 150.66) 04/18/2014 15:45:20 ( 10.05, 147.65)


NCC Satellite Cal/Val Overpasses Prediction Service
